TimeCDT,TemperatureF,Dew PointF,Humidity,Sea Level PressureIn,VisibilityMPH,Wind Direction,Wind SpeedMPH,Gust SpeedMPH,PrecipitationIn,Events,Conditions,WindDirDegrees,DateUTC
12:15 AM,78.8,64.4,61,29.87,10.0,South,9.2,-,N/A,,Clear,170,2013-09-28 05:15:00
12:35 AM,78.8,64.4,61,29.87,10.0,South,9.2,-,N/A,,Scattered Clouds,170,2013-09-28 05:35:00
12:55 AM,78.8,64.4,61,29.87,10.0,South,10.4,-,N/A,,Mostly Cloudy,170,2013-09-28 05:55:00
1:15 AM,78.8,64.4,61,29.87,10.0,South,11.5,18.4,N/A,,Scattered Clouds,170,2013-09-28 06:15:00
1:35 AM,78.8,64.4,61,29.87,10.0,South,12.7,17.3,N/A,,Clear,180,2013-09-28 06:35:00
1:55 AM,78.8,66.2,65,29.87,10.0,South,12.7,18.4,N/A,,Scattered Clouds,180,2013-09-28 06:55:00
2:15 AM,78.8,66.2,65,29.86,10.0,South,11.5,17.3,N/A,,Mostly Cloudy,170,2013-09-28 07:15:00
2:35 AM,78.8,66.2,65,29.86,10.0,South,12.7,16.1,N/A,,Overcast,170,2013-09-28 07:35:00
2:55 AM,78.8,66.2,65,29.86,10.0,South,10.4,19.6,N/A,,Overcast,180,2013-09-28 07:55:00
3:15 AM,78.8,66.2,65,29.86,10.0,South,10.4,18.4,N/A,,Overcast,180,2013-09-28 08:15:00
3:35 AM,78.8,68.0,69,29.85,10.0,South,12.7,20.7,N/A,,Overcast,190,2013-09-28 08:35:00
3:55 AM,78.8,68.0,69,29.86,10.0,South,13.8,19.6,N/A,,Overcast,190,2013-09-28 08:55:00
4:15 AM,78.8,68.0,69,29.86,10.0,South,8.1,19.6,N/A,,Overcast,190,2013-09-28 09:15:00
4:35 AM,78.8,68.0,69,29.87,10.0,South,8.1,-,N/A,,Overcast,190,2013-09-28 09:35:00
4:55 AM,78.8,68.0,69,29.88,10.0,South,9.2,-,N/A,,Overcast,180,2013-09-28 09:55:00
5:15 AM,77.0,68.0,74,29.88,10.0,South,8.1,-,N/A,,Overcast,190,2013-09-28 10:15:00
5:35 AM,77.0,69.8,78,29.88,10.0,South,6.9,-,N/A,,Overcast,170,2013-09-28 10:35:00
5:55 AM,77.0,69.8,78,29.89,10.0,South,10.4,16.1,N/A,,Overcast,170,2013-09-28 10:55:00
6:15 AM,77.0,69.8,78,29.89,10.0,South,9.2,-,N/A,,Overcast,170,2013-09-28 11:15:00
6:35 AM,77.0,69.8,78,29.89,10.0,South,10.4,16.1,N/A,,Mostly Cloudy,170,2013-09-28 11:35:00
6:55 AM,77.0,69.8,78,29.90,10.0,South,10.4,-,N/A,,Mostly Cloudy,180,2013-09-28 11:55:00
7:15 AM,77.0,69.8,78,29.90,10.0,South,9.2,-,N/A,,Overcast,170,2013-09-28 12:15:00
7:35 AM,77.0,69.8,78,29.91,10.0,South,8.1,-,N/A,,Overcast,180,2013-09-28 12:35:00
7:55 AM,77.0,69.8,78,29.92,10.0,South,9.2,-,N/A,,Overcast,180,2013-09-28 12:55:00
8:15 AM,77.0,69.8,78,29.92,10.0,South,8.1,-,N/A,,Overcast,180,2013-09-28 13:15:00
8:35 AM,75.2,69.8,83,29.93,7.0,South,8.1,-,0.01,Rain,Light Rain,180,2013-09-28 13:35:00
8:55 AM,73.4,71.6,94,29.93,7.0,South,6.9,-,0.01,Rain,Light Rain,170,2013-09-28 13:55:00
9:15 AM,73.4,71.6,94,29.93,7.0,SSE,10.4,16.1,N/A,,Overcast,160,2013-09-28 14:15:00
9:35 AM,73.4,71.6,94,29.94,7.0,South,8.1,-,N/A,,Overcast,170,2013-09-28 14:35:00
9:55 AM,73.4,71.6,94,29.94,10.0,South,9.2,-,N/A,,Overcast,170,2013-09-28 14:55:00
10:15 AM,73.4,71.6,94,29.94,5.0,SSE,9.2,-,N/A,Rain,Light Rain,160,2013-09-28 15:15:00
10:35 AM,73.4,71.6,94,29.95,4.0,South,9.2,16.1,0.16,Rain,Light Rain,170,2013-09-28 15:35:00
10:55 AM,73.4,71.6,94,29.96,5.0,South,5.8,-,0.16,,Overcast,180,2013-09-28 15:55:00
11:15 AM,69.8,68.0,94,29.99,5.0,NW,4.6,24.2,0.02,Rain,Rain,320,2013-09-28 16:15:00
11:35 AM,69.8,68.0,94,29.98,0.8,North,4.6,-,0.31,Rain,Heavy Rain,350,2013-09-28 16:35:00
11:55 AM,68.0,66.2,94,29.98,1.5,NNE,10.4,-,0.47,Rain-Thunderstorm,Heavy Thunderstorms and Rain,20,2013-09-28 16:55:00
12:15 PM,66.2,64.4,94,30.00,2.5,North,4.6,-,0.16,Rain-Thunderstorm,Thunderstorms and Rain,10,2013-09-28 17:15:00
12:35 PM,64.4,64.4,100,30.00,5.0,North,6.9,-,0.21,Rain,Light Rain,10,2013-09-28 17:35:00
12:55 PM,64.4,62.6,94,29.98,7.0,North,6.9,-,0.24,Rain-Thunderstorm,Rain,10,2013-09-28 17:55:00
1:15 PM,64.4,62.6,94,29.99,10.0,NNW,5.8,-,0.01,Rain,Light Rain,340,2013-09-28 18:15:00
1:35 PM,64.4,62.6,94,29.99,10.0,North,4.6,-,0.01,,Overcast,360,2013-09-28 18:35:00
1:55 PM,64.4,62.6,94,29.99,10.0,North,4.6,-,0.01,,Overcast,350,2013-09-28 18:55:00
2:15 PM,64.4,62.6,94,29.99,10.0,North,6.9,-,N/A,,Overcast,10,2013-09-28 19:15:00
2:35 PM,64.4,62.6,94,29.98,10.0,North,5.8,-,N/A,,Overcast,360,2013-09-28 19:35:00
2:55 PM,64.4,62.6,94,29.99,10.0,North,5.8,-,N/A,,Overcast,350,2013-09-28 19:55:00
3:15 PM,62.6,60.8,94,30.00,10.0,North,5.8,-,N/A,,Overcast,360,2013-09-28 20:15:00
3:35 PM,64.4,60.8,88,29.99,10.0,North,3.5,-,N/A,,Overcast,350,2013-09-28 20:35:00
3:55 PM,62.6,59.0,88,30.00,10.0,North,8.1,-,N/A,,Overcast,10,2013-09-28 20:55:00
4:15 PM,62.6,59.0,88,30.00,10.0,North,4.6,-,N/A,,Light Drizzle,10,2013-09-28 21:15:00
4:35 PM,64.4,59.0,83,30.00,10.0,North,6.9,-,N/A,,Overcast,360,2013-09-28 21:35:00
4:55 PM,64.4,57.2,77,30.00,10.0,NNE,10.4,-,N/A,,Overcast,20,2013-09-28 21:55:00
5:15 PM,64.4,59.0,83,29.99,10.0,North,5.8,-,N/A,,Scattered Clouds,10,2013-09-28 22:15:00
5:35 PM,64.4,57.2,77,30.00,10.0,North,5.8,-,N/A,,Clear,10,2013-09-28 22:35:00
5:55 PM,66.2,57.2,73,30.01,10.0,NNE,6.9,-,N/A,,Clear,30,2013-09-28 22:55:00
6:15 PM,66.2,57.2,73,30.01,10.0,NNE,8.1,-,N/A,,Clear,30,2013-09-28 23:15:00
6:35 PM,64.4,57.2,77,30.00,10.0,NE,8.1,-,N/A,,Clear,40,2013-09-28 23:35:00
6:55 PM,64.4,57.2,77,30.00,10.0,NNE,6.9,-,N/A,,Clear,30,2013-09-28 23:55:00
7:15 PM,64.4,55.4,73,30.02,10.0,NNE,4.6,-,N/A,,Clear,30,2013-09-29 00:15:00
7:35 PM,64.4,57.2,77,30.03,10.0,Calm,Calm,-,N/A,,Clear,0,2013-09-29 00:35:00
7:55 PM,64.4,59.0,83,30.04,10.0,Calm,Calm,-,N/A,,Mostly Cloudy,0,2013-09-29 00:55:00
8:15 PM,62.6,59.0,88,30.05,10.0,Calm,Calm,-,N/A,,Overcast,0,2013-09-29 01:15:00
8:35 PM,64.4,59.0,83,30.06,10.0,Calm,Calm,-,N/A,,Overcast,0,2013-09-29 01:35:00
8:55 PM,64.4,59.0,83,30.06,10.0,Calm,Calm,-,N/A,,Overcast,0,2013-09-29 01:55:00
9:15 PM,64.4,59.0,83,30.07,10.0,Calm,Calm,-,N/A,,Overcast,0,2013-09-29 02:15:00
9:35 PM,64.4,57.2,77,30.08,10.0,Calm,Calm,-,N/A,,Overcast,0,2013-09-29 02:35:00
9:55 PM,64.4,57.2,77,30.08,10.0,Calm,Calm,-,N/A,,Overcast,0,2013-09-29 02:55:00
10:15 PM,64.4,55.4,73,30.09,10.0,Calm,Calm,-,N/A,,Overcast,0,2013-09-29 03:15:00
10:35 PM,64.4,57.2,77,30.09,10.0,Calm,Calm,-,N/A,,Overcast,0,2013-09-29 03:35:00
10:55 PM,64.4,55.4,73,30.09,10.0,Calm,Calm,-,N/A,,Overcast,0,2013-09-29 03:55:00
11:15 PM,64.4,55.4,73,30.09,10.0,NNE,3.5,-,N/A,,Overcast,30,2013-09-29 04:15:00
11:35 PM,64.4,55.4,73,30.09,10.0,NNE,3.5,-,N/A,,Overcast,20,2013-09-29 04:35:00
11:55 PM,64.4,55.4,73,30.09,10.0,NNE,3.5,-,N/A,,Overcast,20,2013-09-29 04:55:00